TimeMDT,TemperatureF,Dew PointF,Humidity,Sea Level PressureIn,VisibilityMPH,Wind Direction,Wind SpeedMPH,Gust SpeedMPH,PrecipitationIn,Events,Conditions,WindDirDegrees,DateUTC
12:15 AM,12.2,6.8,79,30.19,10.0,SSW,4.6,-,N/A,,Clear,210,2013-03-26 06:15:00
12:36 AM,10.4,6.8,85,30.18,10.0,SSW,6.9,-,N/A,,Clear,210,2013-03-26 06:36:00
12:55 AM,12.2,6.8,79,30.17,10.0,SSW,8.1,-,N/A,,Clear,200,2013-03-26 06:55:00
1:15 AM,12.2,6.8,79,30.17,10.0,SW,4.6,-,N/A,,Clear,230,2013-03-26 07:15:00
1:35 AM,12.2,8.6,85,30.17,10.0,Calm,Calm,-,N/A,,Clear,0,2013-03-26 07:35:00
2:15 AM,8.6,3.2,79,30.15,10.0,SW,3.5,-,N/A,,Clear,230,2013-03-26 08:15:00
2:35 AM,8.6,1.4,73,30.15,10.0,Calm,Calm,-,N/A,,Clear,0,2013-03-26 08:35:00
2:55 AM,10.4,6.8,85,30.14,10.0,SW,3.5,-,N/A,,Clear,230,2013-03-26 08:55:00
3:15 AM,8.6,3.2,79,30.13,10.0,Calm,Calm,-,N/A,,Clear,0,2013-03-26 09:15:00
3:35 AM,6.8,-5.8,56,30.13,10.0,SW,4.6,-,N/A,,Clear,230,2013-03-26 09:35:00
3:55 AM,6.8,-0.4,72,30.13,10.0,Calm,Calm,-,N/A,,Clear,0,2013-03-26 09:55:00
4:15 AM,6.8,3.2,85,30.13,10.0,Calm,Calm,-,N/A,,Clear,0,2013-03-26 10:15:00
4:35 AM,8.6,8.6,100,30.12,10.0,Calm,Calm,-,N/A,,Clear,0,2013-03-26 10:35:00
4:55 AM,6.8,-7.6,52,30.12,10.0,Calm,Calm,-,N/A,,Clear,0,2013-03-26 10:55:00
5:15 AM,8.6,6.8,92,30.12,10.0,Calm,Calm,-,N/A,,Clear,0,2013-03-26 11:15:00
5:35 AM,5.0,3.2,92,30.11,10.0,Calm,Calm,-,N/A,,Clear,0,2013-03-26 11:35:00
5:55 AM,10.4,10.4,100,30.11,10.0,Calm,Calm,-,N/A,,Clear,0,2013-03-26 11:55:00
6:15 AM,8.6,1.4,73,30.10,10.0,Calm,Calm,-,N/A,,Clear,0,2013-03-26 12:15:00
6:35 AM,8.6,6.8,92,30.10,10.0,Calm,Calm,-,N/A,,Clear,0,2013-03-26 12:35:00
6:55 AM,10.4,5.0,79,30.11,10.0,Calm,Calm,-,N/A,,Clear,0,2013-03-26 12:55:00
7:15 AM,12.2,12.2,100,30.11,10.0,Calm,Calm,-,N/A,,Clear,0,2013-03-26 13:15:00
7:55 AM,12.2,8.6,85,30.11,10.0,Calm,Calm,-,N/A,,Clear,0,2013-03-26 13:55:00
8:15 AM,14.0,12.2,93,30.11,10.0,Calm,Calm,-,N/A,,Clear,0,2013-03-26 14:15:00
8:35 AM,15.8,12.2,86,30.11,10.0,Calm,Calm,-,N/A,,Clear,0,2013-03-26 14:35:00
8:55 AM,17.6,12.2,79,30.11,10.0,Calm,Calm,-,N/A,,Clear,0,2013-03-26 14:55:00
9:15 AM,17.6,10.4,73,30.11,10.0,Calm,Calm,-,N/A,,Clear,0,2013-03-26 15:15:00
9:35 AM,19.4,12.2,74,30.11,10.0,Calm,Calm,-,N/A,,Clear,0,2013-03-26 15:35:00
9:55 AM,21.2,12.2,68,30.11,10.0,Calm,Calm,-,N/A,,Clear,0,2013-03-26 15:55:00
10:35 AM,24.8,17.6,74,30.10,10.0,SSE,9.2,-,N/A,,Clear,150,2013-03-26 16:35:00
10:55 AM,26.6,17.6,69,30.10,10.0,SSE,9.2,-,N/A,,Clear,150,2013-03-26 16:55:00
11:15 AM,28.4,19.4,69,30.10,10.0,SSE,10.4,-,N/A,,Clear,150,2013-03-26 17:15:00
11:35 AM,28.4,21.2,74,30.10,10.0,SSE,11.5,-,N/A,,Clear,150,2013-03-26 17:35:00
11:55 AM,30.2,21.2,69,30.09,10.0,SSE,10.4,-,N/A,,Clear,150,2013-03-26 17:55:00
12:15 PM,32.0,21.2,64,30.09,10.0,SSE,10.4,-,N/A,,Clear,150,2013-03-26 18:15:00
12:35 PM,33.8,23.0,65,30.08,10.0,SSE,11.5,-,N/A,,Clear,150,2013-03-26 18:35:00
1:15 PM,33.8,23.0,65,30.08,10.0,SSE,10.4,-,N/A,,Clear,150,2013-03-26 19:15:00
1:35 PM,35.6,24.8,65,30.08,10.0,SSE,10.4,-,N/A,,Clear,150,2013-03-26 19:35:00
1:55 PM,35.6,24.8,65,30.08,10.0,SSE,9.2,-,N/A,,Clear,150,2013-03-26 19:55:00
2:15 PM,35.6,24.8,65,30.08,10.0,SSE,9.2,-,N/A,,Clear,150,2013-03-26 20:15:00
2:35 PM,37.4,24.8,60,30.08,10.0,SSE,11.5,-,N/A,,Clear,150,2013-03-26 20:35:00
3:35 PM,37.4,26.6,65,30.06,10.0,SSE,10.4,-,N/A,,Clear,150,2013-03-26 21:35:00
3:55 PM,37.4,26.6,65,30.05,10.0,SSE,11.5,-,N/A,,Clear,150,2013-03-26 21:55:00
4:15 PM,37.4,26.6,65,30.05,10.0,SSE,10.4,-,N/A,,Clear,150,2013-03-26 22:15:00
4:35 PM,39.2,26.6,61,30.05,10.0,SSE,10.4,-,N/A,,Clear,160,2013-03-26 22:35:00
4:55 PM,39.2,26.6,61,30.05,10.0,SSE,8.1,-,0.05,,Clear,160,2013-03-26 22:55:00
5:15 PM,39.2,28.4,65,30.05,10.0,South,6.9,-,0.02,,Clear,170,2013-03-26 23:15:00
5:35 PM,39.2,26.6,61,30.06,10.0,Calm,Calm,-,0.03,,Clear,0,2013-03-26 23:35:00
5:55 PM,39.2,26.6,61,30.06,10.0,WSW,4.6,-,0.04,,Clear,240,2013-03-26 23:55:00
6:15 PM,39.2,26.6,61,30.06,10.0,Calm,Calm,-,N/A,,Clear,0,2013-03-27 00:15:00
6:35 PM,39.2,26.6,61,30.06,10.0,South,3.5,-,N/A,,Clear,190,2013-03-27 00:35:00
6:55 PM,35.6,26.6,70,30.06,10.0,Calm,Calm,-,N/A,,Clear,0,2013-03-27 00:55:00
7:15 PM,33.8,24.8,70,30.06,10.0,Calm,Calm,-,N/A,,Clear,0,2013-03-27 01:15:00
7:35 PM,32.0,24.8,75,30.06,10.0,Calm,Calm,-,N/A,,Clear,0,2013-03-27 01:35:00
7:55 PM,30.2,24.8,80,30.07,10.0,Calm,Calm,-,N/A,,Clear,0,2013-03-27 01:55:00
8:15 PM,28.4,24.8,86,30.07,10.0,NW,4.6,-,N/A,,Clear,320,2013-03-27 02:15:00
8:35 PM,28.4,24.8,86,30.07,10.0,NNW,3.5,-,N/A,,Clear,330,2013-03-27 02:35:00
8:55 PM,28.4,24.8,86,30.07,10.0,NNW,3.5,-,N/A,,Clear,340,2013-03-27 02:55:00
9:15 PM,26.6,21.2,80,30.08,10.0,NNW,5.8,-,N/A,,Clear,330,2013-03-27 03:15:00
9:35 PM,26.6,23.0,86,30.08,10.0,NW,4.6,-,N/A,,Clear,320,2013-03-27 03:35:00
9:55 PM,26.6,23.0,86,30.08,10.0,NW,4.6,-,N/A,,Clear,310,2013-03-27 03:55:00
10:15 PM,26.6,21.2,80,30.08,10.0,NW,5.8,-,N/A,,Clear,320,2013-03-27 04:15:00
10:35 PM,26.6,23.0,86,30.09,10.0,WNW,5.8,-,N/A,,Clear,300,2013-03-27 04:35:00
10:55 PM,24.8,21.2,86,30.08,10.0,NW,3.5,-,N/A,,Clear,310,2013-03-27 04:55:00
11:15 PM,24.8,19.4,80,30.08,10.0,NW,3.5,-,N/A,,Clear,310,2013-03-27 05:15:00
11:35 PM,23.0,19.4,86,30.09,10.0,NW,4.6,-,N/A,,Clear,320,2013-03-27 05:35:00
11:55 PM,23.0,19.4,86,30.09,10.0,NW,3.5,-,N/A,,Clear,310,2013-03-27 05:55:00